CAPE
0 0 0 0 0 0 0 0 0 0 0 0 2 2 1 0 0 0 0 0 0 0 0 0 0 0 0 0 0 0 0 0 0 0 0 0 0 0 0 0 0 0 0 0 0
0 0 0 0 0 0 0 0 0 0 0 4 1 2 0 0 0 0 14 0 0 0 0 0 0 0 0 0 0 0 0 0 0 0 0 0 0 0 0 0 0 0 0 0 0
0 0 0 0 0 0 0 0 0 0 1 2 0 0 0 0 0 0 0 0 0 0 0 0 0 0 0 0 0 0 0 0 0 0 0 0 0 0 0 0 0 0 0 0 0
0 0 0 0 0 0 0 0 0 0 0 0 0 0 0 0 0 0 0 0 0 0 0 0 0 0 0 0 0 0 0 0 0 0 0 0 0 0 0 0 0 0 0 0 0
0 0 0 0 0 0 0 0 0 0 0 0 0 0 0 0 0 0 0 0 0 0 0 0 0 0 0 0 0 0 0 0 0 0 0 0 0 0 0 0 0 0 0 0 0
0 0 0 0 0 0 0 0 0 0 0 0 0 0 0 0 0 0 0 0 0 0 0 0 0 0 0 0 0 0 0 0 0 0 0 0 0 0 0 0 0 0 0 0 0
0 0 0 0 0 0 0 0 0 0 0 0 0 0 0 0 0 0 0 0 0 0 0 0 0 0 0 0 0 0 0 0 0 0 0 0 0 0 0 0 0 0 0 0 0
0 0 0 0 0 0 0 0 0 0 0 0 0 0 0 0 0 0 0 0 0 0 0 0 0 0 0 0 0 0 0 0 0 0 0 0 0 0 0 0 0 0 0 0 0
0 0 0 0 0 0 0 0 0 0 0 0 0 0 0 0 0 0 0 0 0 0 0 0 0 0 0 0 0 0 0 0 0 0 0 0 0 0 0 0 0 0 0 0 0
0 0 0 0 0 0 0 0 0 0 0 0 0 0 0 0 0 0 0 0 0 0 0 0 0 0 0 0 0 0 0 0 0 0 0 0 0 0 0 0 0 0 0 0 1
0 0 0 0 0 0 0 0 0 0 0 0 0 0 0 0 0 0 0 0 0 0 0 0 0 0 0 0 0 0 0 0 0 0 0 0 0 1 0 0 1 2 0 1 2
0 0 0 0 0 0 0 0 0 0 0 0 0 0 0 0 0 0 0 0 0 0 0 0 0 0 0 0 0 0 0 0 0 0 0 0 0 0 0 0 0 0 1 2 0
0 0 0 0 0 0 0 0 0 0 0 0 0 0 0 0 0 0 0 0 0 0 0 0 0 0 0 0 0 0 0 0 0 0 0 0 0 0 0 0 0 0 0 0 2
0 0 0 0 0 0 0 0 0 0 0 0 0 0 0 0 0 0 0 0 0 0 0 0 0 0 0 0 0 0 0 0 0 0 0 0 0 0 0 0 0 0 0 0 0
0 0 0 0 0 0 0 0 0 0 0 0 0 0 0 0 0 0 0 0 0 0 0 0 0 0 0 0 0 0 0 0 0 0 0 0 0 0 0 0 0 0 0 0 0
0 0 0 0 0 0 0 0 0 0 0 0 0 0 0 0 0 0 0 0 0 0 0 0 0 0 0 0 0 0 0 0 0 0 0 0 0 0 0 0 0 0 0 0 0
0 0 0 0 0 0 0 0 0 0 0 0 0 0 0 0 0 0 0 0 0 0 0 0 0 0 0 0 0 0 0 0 0 0 0 0 0 0 0 0 0 0 0 0 0
0 0 0 0 0 0 0 0 0 0 0 0 0 0 0 0 0 0 0 0 0 0 0 0 0 0 0 0 0 0 0 0 0 0 0 0 0 0 0 0 0 0 0 0 0
0 0 0 0 0 0 0 0 0 0 0 0 0 0 0 0 0 0 0 0 0 0 0 0 0 0 0 0 0 0 0 0 0 0 0 0 0 0 0 0 0 0 0 0 0
0 0 0 0 0 0 0 0 0 0 0 0 0 0 0 0 0 0 0 0 0 0 0 0 0 0 0 0 0 0 0 0 0 0 0 0 0 0 0 0 0 0 0 0 0
0 0 0 0 0 0 0 0 0 0 0 0 0 0 0 0 0 0 0 0 0 0 0 0 0 0 0 0 0 0 0 0 0 0 0 0 0 0 0 0 0 0 0 0 0
0 0 0 0 0 0 0 0 0 0 0 0 0 0 0 0 0 0 0 0 0 0 0 0 0 0 0 0 0 0 0 0 0 0 0 0 0 0 0 0 0 0 0 0 0
0 0 0 0 0 0 0 0 0 0 0 0 0 0 0 0 0 0 0 0 0 0 0 0 0 0 0 0 0 0 0 0 0 0 0 0 0 0 0 0 0 0 0 0 0
0 0 0 0 0 0 0 0 0 0 0 0 0 0 0 0 0 0 0 0 0 0 0 0 0 0 0 0 0 0 0 0 0 0 0 0 0 0 0 0 0 0 0 0 0
0 0 0 0 0 0 0 0 0 0 0 0 0 0 0 0 0 0 0 0 0 0 0 0 0 0 0 0 0 0 0 0 0 0 0 0 0 0 0 0 0 0 0 0 0
0 0 0 0 0 0 0 0 0 0 0 0 0 0 0 0 0 0 0 0 0 0 0 0 0 0 0 0 0 0 0 0 0 0 0 0 0 0 0 0 0 0 0 0 0
0 0 0 0 0 0 0 0 0 0 0 0 0 0 0 0 0 0 0 0 0 0 0 0 0 0 0 0 0 0 0 0 0 0 0 0 0 0 0 0 0 0 0 0 0
CIN
-0 -0 -0 -0 -0 -0 -0 -0 -0 -0 -0 -0 -0 -0 -0 -0 -0 -0 -0 -0 -0 -0 -0 -0 -0 -0 -0 -0 -0 -0 -0 -0 -0 -0 -0 -0 -0 -0 -0 -0 -0 -0 -0 -0 -0
-0 -0 -0 -0 -0 -0 -0 -0 -0 -0 -0 -0 -0 -0 -0 -0 -0 -0 -0 -0 -0 -0 -0 -0 -0 -0 -0 -0 -0 -0 -0 -0 -0 -0 -0 -0 -0 -0 -0 -0 -0 -0 -0 -0 -0
-0 -0 -0 -0 -0 -0 -0 -0 -0 -0 -0 -0 -0 -0 -0 -0 -0 -0 -0 -0 -0 -0 -0 -0 -0 -0 -0 -0 -0 -0 -0 -0 -0 -0 -0 -0 -0 -0 -0 -0 -0 -0 -0 -0 -0
-0 -0 -0 -0 -0 -0 -0 -0 -0 -0 -0 -0 -0 -0 -0 -0 -0 -0 -0 -0 -0 -0 -0 -0 -0 -0 -0 -0 -0 -0 -0 -0 -0 -0 -0 -0 -0 -0 -0 -0 -0 -0 -0 -0 -0
-0 -0 -0 -0 -0 -0 -0 -0 -0 -0 -0 -0 -0 -0 -0 -0 -0 -0 -0 -0 -0 -0 -0 -0 -0 -0 -0 -0 -0 -0 -0 -0 -0 -0 -0 -0 -0 -0 -0 -0 -0 -0 -0 -0 -0
-0 -0 -0 -0 -0 -0 -0 -0 -0 -0 -0 -0 -0 -0 -0 -0 -0 -0 -0 -0 -0 -0 -0 -0 -0 -0 -0 -0 -0 -0 -0 -0 -0 -0 -0 -0 -0 -0 -0 -0 -0 -0 -0 -0 -0
-0 -0 -0 -0 -0 -0 -0 -0 -0 -0 -0 -0 -0 -0 -0 -0 -0 -0 -0 -0 -0 -0 -0 -0 -0 -0 -0 -0 -0 -0 -0 -0 -0 -0 -0 -0 -0 -0 -0 -0 -0 -0 -0 -0 -0
-0 -0 -0 -0 -0 -0 -0 -0 -0 -0 -0 -0 -0 -0 -0 -0 -0 -0 -0 -0 -0 -0 -0 -0 -0 -0 -0 -0 -0 -0 -0 -0 -0 -0 -0 -0 -0 -0 -0 -0 -0 -0 -0 -0 -0
-0 -0 -0 -0 -0 -0 -0 -0 -0 -0 -0 -0 -0 -0 -0 -0 -0 -0 -0 -0 -0 -0 -0 -0 -0 -0 -0 -0 -0 -0 -0 -0 -0 -0 -0 -0 -0 -0 -0 -0 -0 -0 -0 -0 -0
-0 -0 -0 -0 -0 -0 -0 -0 -0 -0 -0 -0 -0 -0 -0 -0 -0 -0 -0 -0 -0 -0 -0 -0 -0 -0 -0 -0 -0 -0 -0 -0 -0 -0 -0 -0 -0 -0 -0 -0 -0 -0 -0 -0 -0
-0 -0 -0 -0 -0 -0 -0 -0 -0 -0 -0 -0 -0 -0 -0 -0 -0 -0 -0 -0 -0 -0 -0 -0 -0 -0 -0 -0 -0 -0 -0 -0 -0 -0 -0 -0 -0 -0 -0 -0 -0 -0 -0 -0 -0
-0 -0 -0 -0 -0 -0 -0 -0 -0 -0 -0 -0 -0 -0 -0 -0 -0 -0 -0 -0 -0 -0 -0 -0 -0 -0 -0 -0 -0 -0 -0 -0 -0 -0 -0 -0 -0 -0 -0 -0 -0 -0 -0 -0 -0
-0 -0 -0 -0 -0 -0 -0 -0 -0 -0 -0 -0 -0 -0 -0 -0 -0 -0 -0 -0 -0 -0 -0 -0 -0 -0 -0 -0 -0 -0 -0 -0 -0 -0 -0 -0 -0 -0 -0 -0 -0 -0 -0 -0 -0
-0 -0 -0 -0 -0 -0 -0 -0 -0 -0 -0 -0 -0 -0 -0 -0 -0 -0 -0 -0 -0 -0 -0 -0 -0 -0 -0 -0 -0 -0 -0 -0 -0 -0 -0 -0 -0 -0 -0 -0 -0 -0 -0 -0 -0
-0 -0 -0 -0 -0 -0 -0 -0 -0 -0 -0 -0 -0 -0 -0 -0 -0 -0 -0 -0 -0 -0 -0 -0 -0 -0 -0 -0 -0 -0 -0 -0 -0 -0 -0 -0 -0 -0 -0 -0 -0 -0 -0 -0 -0
-0 -0 -0 -0 -0 -0 -0 -0 -0 -0 -0 -0 -0 -0 -0 -0 -0 -0 -0 -0 -0 -0 -0 -0 -0 -0 -0 -0 -0 -0 -0 -0 -0 -0 -0 -0 -0 -0 -0 -0 -0 -0 -0 -0 -0
-0 -0 -0 -0 -0 -0 -0 -0 -0 -0 -0 -0 -0 -0 -0 -0 -0 -0 -0 -0 -0 -0 -0 -0 -0 -0 -0 -0 -0 -0 -0 -0 -0 -0 -0 -0 -0 -0 -0 -0 -0 -0 -0 -0 -0
-0 -0 -0 -0 -0 -0 -0 -0 -0 -0 -0 -0 -0 -0 -0 -0 -0 -0 -0 -0 -0 -0 -0 -0 -0 -0 -0 -0 -0 -0 -0 -0 -0 -0 -0 -0 -0 -0 -0 -0 -0 -0 -0 -0 -0
-0 -0 -0 -0 -0 -0 -0 -0 -0 -0 -0 -0 -0 -0 -0 -0 -0 -0 -0 -0 -0 -0 -0 -0 -0 -0 -0 -0 -0 -0 -0 -0 -0 -0 -0 -0 -0 -0 -0 -0 -0 -0 -0 -0 -0
-0 -0 -0 -0 -0 -0 -0 -0 -0 -0 -0 -0 -0 -0 -0 -0 -0 -0 -0 -0 -0 -0 -0 -0 -0 -0 -0 -0 -0 -0 -0 -0 -0 -0 -0 -0 -0 -0 -0 -0 -0 -0 -0 -0 -0
-0 -0 -0 -0 -0 -0 -0 -0 -0 -0 -0 -0 -0 -0 -0 -0 -0 -0 -0 -0 -0 -0 -0 -0 -0 -0 -0 -0 -0 -0 -0 -0 -0 -0 -0 -0 -0 -0 -0 -0 -0 -0 -0 -0 -0
-0 -0 -0 -0 -0 -0 -0 -0 -0 -0 -0 -0 -0 -0 -0 -0 -0 -0 -0 -0 -0 -0 -0 -0 -0 -0 -0 -0 -0 -0 -0 -0 -0 -0 -0 -0 -0 -0 -0 -0 -0 -0 -0 -0 -0
-0 -0 -0 -0 -0 -0 -0 -0 -0 -0 -0 -0 -0 -0 -0 -0 -0 -0 -0 -0 -0 -0 -0 -0 -0 -0 -0 -0 -0 -0 -0 -0 -0 -0 -0 -0 -0 -0 -0 -0 -0 -0 -0 -0 -0
-0 -0 -0 -0 -0 -0 -0 -0 -0 -0 -0 -0 -0 -0 -0 -0 -0 -0 -0 -0 -0 -0 -0 -0 -0 -0 -0 -0 -0 -0 -0 -0 -0 -0 -0 -0 -0 -0 -0 -0 -0 -0 -0 -0 -0
-0 -0 -0 -0 -0 -0 -0 -0 -0 -0 -0 -0 -0 -0 -0 -0 -0 -0 -0 -0 -0 -0 -0 -0 -0 -0 -0 -0 -0 -0 -0 -0 -0 -0 -0 -0 -0 -0 -0 -0 -0 -0 -0 -0 -0
-0 -0 -0 -0 -0 -0 -0 -0 -0 -0 -0 -0 -0 -0 -0 -0 -0 -0 -0 -0 -0 -0 -0 -0 -0 -0 -0 -0 -0 -0 -0 -0 -0 -0 -0 -0 -0 -0 -0 -0 -0 -0 -0 -0 -0
-0 -0 -0 -0 -0 -0 -0 -0 -0 -0 -0 -0 -0 -0 -0 -0 -0 -0 -0 -0 -0 -0 -0 -0 -0 -0 -0 -0 -0 -0 -0 -0 -0 -0 -0 -0 -0 -0 -0 -0 -0 -0 -0 -0 -0
Wind_Speed
26 26 26 27 27 27 26 26 28 29 30 30 26 23 22 21 21 20 23 20 18 23 18 17 15 14 13 13 13 12 15 15 17 17 18 21 26 24 28 27 27 25 24 27 24
28 28 29 29 29 29 29 29 30 31 31 26 24 22 19 18 20 24 25 24 23 21 18 18 15 17 15 15 14 13 17 18 15 16 21 26 28 32 32 35 35 36 28 27 26
29 30 30 29 30 31 31 31 32 31 28 26 22 20 18 16 20 24 26 26 24 20 17 16 16 15 16 16 15 15 18 19 20 21 26 34 38 30 31 33 34 37 40 33 31
29 29 30 31 31 32 32 32 32 30 28 26 23 19 18 17 21 22 29 26 24 20 18 19 18 17 17 18 18 22 20 21 24 26 31 33 31 31 30 34 38 36 37 38 37
30 31 32 33 33 33 32 32 31 27 27 26 22 20 18 22 24 23 28 27 22 21 21 20 21 20 21 20 22 23 25 26 28 32 32 31 32 33 35 39 39 37 36 38 41
32 33 33 33 33 33 33 31 28 26 25 25 23 20 21 24 24 28 28 24 25 23 21 20 19 19 22 22 23 25 30 32 33 35 33 33 30 22 34 37 32 32 34 32 31
32 33 32 32 33 33 33 31 26 24 24 23 23 22 27 25 25 29 29 23 22 21 22 20 20 22 23 26 24 28 37 35 30 33 31 36 28 31 38 38 36 34 33 31 30
32 33 33 34 34 34 34 27 21 21 22 23 23 22 22 22 28 32 31 22 23 20 20 20 22 23 24 26 30 33 32 34 33 37 35 34 36 39 42 36 36 36 35 34 33
34 34 35 36 35 35 34 24 21 20 20 21 22 20 23 20 29 32 29 24 22 24 24 22 24 26 30 35 36 33 36 40 36 34 38 36 39 42 41 40 41 39 38 37 38
36 36 36 36 34 34 26 22 24 21 20 20 22 22 27 26 22 32 30 27 24 27 25 29 28 29 34 38 41 40 40 39 39 40 41 39 43 42 41 40 40 40 40 40 39
36 35 36 36 33 32 22 19 21 22 29 24 24 22 22 17 30 35 32 26 28 30 33 29 35 37 35 34 33 35 38 42 37 37 43 42 39 40 42 41 43 43 42 39 39
38 37 37 34 25 33 25 24 22 18 24 22 25 26 24 20 28 39 36 28 32 35 33 31 35 30 31 36 37 38 41 45 40 44 43 43 37 38 39 40 40 42 42 41 40
38 37 37 33 21 27 29 25 20 18 21 21 21 24 26 27 30 38 36 29 32 35 36 33 32 30 34 39 43 39 42 48 49 47 41 37 38 41 40 39 40 41 40 41 41
38 36 36 28 22 25 26 25 21 17 21 24 23 24 30 20 28 38 34 30 32 36 31 32 31 35 39 41 43 45 42 45 48 49 49 38 50 41 41 41 41 41 42 42 42
36 34 34 30 23 26 23 22 19 19 27 23 23 22 29 27 26 42 31 32 33 36 30 33 36 39 41 41 39 39 43 45 46 44 43 39 42 41 37 42 43 42 40 40 39
33 30 31 26 25 24 23 20 19 25 24 24 23 29 30 33 29 29 38 29 29 30 32 31 28 31 36 37 36 41 45 40 36 36 44 38 40 39 39 40 39 38 38 37 36
31 26 27 24 26 23 20 21 26 26 25 28 29 31 31 34 33 33 41 45 38 39 41 35 35 31 37 40 38 43 46 49 47 47 44 36 39 33 30 32 33 35 36 35 34
27 21 27 27 22 20 21 25 28 26 27 26 29 30 33 35 33 37 36 38 38 36 37 41 42 38 37 36 41 40 39 43 51 48 47 33 29 23 25 28 31 32 34 35 35
24 21 27 32 23 21 25 29 27 27 26 30 30 33 33 32 33 33 36 35 37 38 40 42 40 33 35 32 35 38 40 30 34 32 35 28 23 16 27 32 34 35 36 36 36
24 23 29 31 23 23 26 27 24 25 25 27 33 32 37 37 36 35 35 34 34 34 31 34 40 30 33 28 31 32 30 35 30 37 36 27 26 23 31 35 37 39 39 39 37
24 25 29 27 23 27 28 26 23 25 24 29 30 31 32 34 32 33 35 32 31 35 33 32 32 35 29 31 32 33 33 28 25 26 30 31 26 20 28 35 38 41 40 41 40
25 28 29 25 27 27 27 24 22 26 25 26 25 28 30 31 32 33 33 32 31 31 36 30 30 37 32 23 23 27 29 27 28 28 24 24 24 22 28 35 40 43 43 43 41
27 25 25 24 28 28 25 25 25 27 29 26 26 27 28 31 32 31 31 29 29 33 33 29 31 39 35 26 23 26 27 26 22 22 23 26 24 23 33 41 41 45 45 45 42
26 27 28 27 25 25 26 26 27 26 27 26 26 27 30 30 31 31 33 27 27 29 30 26 28 32 35 30 25 25 26 28 25 25 25 21 25 32 38 44 42 47 46 45 42
26 24 24 29 29 26 25 26 28 29 25 27 27 29 30 33 32 31 30 29 25 27 30 28 31 29 28 23 20 23 23 25 24 22 24 23 25 31 40 48 45 18 46 44 43
25 24 24 24 24 26 28 28 28 26 26 27 29 29 28 29 28 31 29 28 28 27 29 26 30 30 30 20 19 22 23 20 24 24 20 22 22 28 39 43 46 39 40 39 45
22 22 22 25 25 27 27 26 25 23 25 25 27 29 28 26 23 23 20 19 22 25 26 26 29 31 30 24 23 24 23 22 22 24 21 26 27 28 31 43 46 40 41 44 44
Wind_Direction
327 325 322 321 322 321 314 313 320 328 325 336 355 3 7 9 11 17 358 1 2 344 357 1 4 10 9 2 1 4 340 331 329 327 329 327 320 322 316 310 309 311 314 308 308
330 327 325 324 321 320 319 320 329 329 338 359 4 9 15 16 17 1 350 352 356 358 2 1 5 0 357 355 350 339 330 329 335 332 324 320 319 314 310 303 296 295 305 310 305
329 327 325 322 322 324 326 333 333 328 347 360 8 12 17 19 1 350 344 346 354 360 4 3 359 358 344 343 339 336 322 326 324 323 321 313 309 314 310 304 301 296 292 300 298
325 323 322 326 325 327 334 337 333 334 347 359 10 20 22 15 352 357 339 345 349 355 359 351 349 345 342 334 335 323 324 322 322 322 319 316 317 313 310 308 302 299 295 293 293
325 325 326 327 327 330 339 341 340 353 356 2 14 19 23 4 355 359 341 346 353 357 353 349 342 340 333 335 330 321 322 325 324 319 317 318 314 312 312 313 309 303 299 295 290
327 327 326 327 328 333 342 347 351 356 358 0 3 12 8 353 356 350 349 357 356 358 356 356 352 348 337 333 329 329 323 323 322 317 319 318 319 322 322 321 324 322 316 314 311
327 325 323 322 324 329 334 345 355 3 5 7 6 16 11 355 5 355 355 360 3 4 360 1 356 346 340 332 332 325 318 321 331 328 324 321 317 317 322 319 317 320 320 319 323
325 325 325 325 328 335 340 359 11 14 12 8 5 10 6 18 3 353 354 8 2 7 4 359 353 344 336 332 327 322 321 318 327 326 321 321 307 316 322 322 318 316 316 315 314
329 330 331 331 333 339 345 13 22 21 19 17 13 14 3 16 357 357 6 7 6 2 356 353 348 342 337 327 322 326 317 315 316 329 323 321 310 316 322 318 313 313 313 312 310
333 333 336 336 337 345 9 27 29 27 23 23 22 8 4 4 14 356 1 4 1 352 349 347 345 338 338 333 320 320 318 317 315 321 323 317 312 317 321 318 314 313 313 312 310
331 332 336 342 350 359 19 22 14 13 15 16 12 16 13 21 10 358 359 359 357 354 345 347 341 335 337 337 330 324 320 317 318 323 321 318 316 319 320 318 316 314 313 314 313
335 337 343 349 13 3 19 13 14 21 12 23 20 22 17 17 356 352 354 359 355 347 347 343 337 342 340 337 332 328 322 319 320 324 320 316 314 321 325 324 322 320 318 316 315
339 346 348 352 21 12 14 16 21 27 10 14 20 16 16 15 4 355 0 358 354 350 352 344 342 345 341 336 332 329 326 323 319 321 319 314 308 317 323 327 327 327 325 323 319
343 351 352 6 16 14 12 11 16 23 3 3 10 11 3 16 360 1 3 1 353 348 349 349 349 344 340 336 336 327 331 326 322 321 316 322 305 318 322 321 325 326 327 326 326
346 355 359 10 14 8 9 15 20 18 352 8 8 16 11 6 357 356 5 5 355 352 349 343 343 343 341 340 339 330 331 327 323 319 318 320 310 317 322 320 325 326 330 330 330
357 6 6 8 10 11 13 21 21 1 355 358 2 356 355 1 3 4 5 5 4 354 357 350 352 350 346 346 343 337 335 333 333 330 321 322 321 320 325 327 327 331 332 332 332
358 12 18 21 7 12 21 17 360 358 359 354 352 354 357 354 356 356 356 359 354 346 345 344 347 351 351 343 345 342 338 330 327 328 324 327 323 324 337 342 339 335 333 331 332
4 17 19 18 19 24 20 5 354 356 355 358 354 356 353 356 354 355 350 351 358 354 347 345 339 349 350 346 341 343 343 335 328 328 326 337 328 333 354 350 345 340 333 329 330
11 17 12 3 20 22 9 358 359 358 358 353 354 352 352 354 352 352 353 353 354 355 347 342 340 349 351 354 355 348 345 344 336 338 336 341 348 345 343 344 343 338 333 325 319
9 10 4 3 18 15 6 1 2 3 2 1 352 354 346 349 351 352 351 353 350 357 356 348 340 350 351 357 359 358 356 350 350 341 339 343 341 340 340 336 335 333 329 320 316
10 4 5 10 17 9 2 4 7 10 8 2 356 351 352 351 352 350 349 351 356 353 357 353 349 346 355 354 354 357 358 358 353 352 345 342 344 354 346 337 329 326 324 320 311
5 356 5 13 4 9 4 8 12 5 10 6 5 0 355 354 351 349 348 350 356 355 351 354 351 345 349 359 7 5 1 360 354 351 352 349 347 2 353 342 329 318 317 318 313
2 3 13 16 1 5 11 10 10 4 4 5 3 2 358 353 350 350 351 356 358 356 355 357 352 348 350 358 0 360 2 2 358 356 351 347 347 358 348 338 339 318 312 314 313
5 358 6 18 17 10 7 4 1 7 4 6 4 2 357 353 353 349 349 356 359 2 4 4 355 353 345 343 350 352 357 360 360 351 347 343 340 343 341 338 343 327 315 312 311
7 4 8 358 3 8 6 3 359 357 6 5 2 1 355 351 349 351 354 356 1 6 4 5 355 354 350 351 358 355 355 358 360 358 352 347 343 342 333 327 335 311 318 319 316
2 4 9 9 8 4 2 359 358 2 3 1 359 359 357 351 352 350 353 356 357 360 1 6 355 356 354 1 359 353 357 1 360 357 355 352 345 351 340 337 330 299 304 338 314
10 11 8 2 1 360 359 360 2 7 6 6 2 359 356 356 356 353 354 355 357 357 0 1 358 356 354 0 359 353 1 4 0 358 357 352 352 353 350 339 333 299 318 326 309